Regional Weather Roundup
Issued by NWS Sterling, VA

Home | Current Version | Previous Version | Graphics & Text | Print | Product List | Glossary On
Versions: 1 2 3 4 5 6 7 8 9 10 11 12 13 14 15 16 17 18 19 20 21 22 23 24 25 26 27 28 29 30 31 32 33 34 35 36 37 38 39 40 41 42 43 44 45 46 47 48 49 50
000
ASUS41 KLWX 200010
RWRLWX

REGIONAL WEATHER ROUNDUP
NATIONAL WEATHER SERVICE BALTIMORE MD/WASHINGTON DC
800 PM EDT SUN OCT 19 2014

Note: "FAIR" indicates few or no clouds below 12,000 feet
with no significant weather and/or obstructions to visibility.
 TC=TEMPERATURE CELSIUS

 * =Non NWS site. Station does not report precipitation (e.g. rain,
    snow, etc.), thunder, or fog.

DCZ001-MDZ009-015-VAZ040>042-051-053>054-200100-
WASHINGTON METRO

CITY           SKY/WX    TMP DP  RH WIND       PRES   REMARKS
WASHINGTON NAT MOCLDY    58  31  35 NW8       30.09R
DULLES         MOCLDY    48  33  56 NW3       30.08R
ANDREWS AFB    CLEAR     53  33  47 W6        30.07R
FT BELVOIR     CLEAR     46  39  79 SE2       30.09R
QUANTICO       CLEAR     50  40  68 NW6       30.09R
COLLEGE PARK*  CLEAR     46  37  71 CALM      30.08R
LEESBURG*      CLEAR     50  36  57 CALM      30.08S
MANASSAS*      CLEAR     46  39  76 CALM      30.08S
GAITHERSBURG*  CLEAR     46  34  61 NW6       30.11R

$$

MDZ006>007-011-014-200100-
BALTIMORE METRO

CITY           SKY/WX    TMP DP  RH WIND       PRES   REMARKS
BWI AIRPORT    PTCLDY    47  35  63 W3        30.06R
MD SCIENCE CTR   N/A     55  30  38 MISG      30.07R
MARTIN STATE   PTCLDY    48  39  71 CALM      30.08R
ANNAPOLIS      CLEAR     51  32  48 W3        30.06S
FORT MEADE*    CLEAR     43  37  81 CALM      30.10R

$$

MDZ012-015-019>023-200100-
MARYLAND EASTERN SHORE

CITY           SKY/WX    TMP DP  RH WIND       PRES   REMARKS
OCEAN CITY     CLEAR     44  35  70 NW5       30.07R
SALISBURY      CLEAR     49  37  63 N3        30.07R
BAY BRIDGE AP*   N/A     54  32  43 NW8       30.07S
CAMBRIDGE*     CLEAR     46  36  66 CALM      30.07S
EASTON*        PTCLDY    48  37  66 CALM      30.11R

$$

MDZ017>025-200100-
SOUTHERN MARYLAND

CITY           SKY/WX    TMP DP  RH WIND       PRES   REMARKS
PATUXENT RIVER CLEAR     49  35  58 SW3       30.07R
ST INIGOES     CLEAR     45  36  70 CALM      30.07R
LEONARDTOWN*   CLEAR     43  36  75 CALM      30.10R

$$

MDZ003>005-200100-
NORTH CENTRAL MARYLAND

CITY           SKY/WX    TMP DP  RH WIND       PRES   REMARKS
FREDERICK*     CLEAR     57  28  33 VRB3      30.11R
HAGERSTOWN APT CLEAR     52  30  43 CALM      30.08R
WESTMINSTER*   CLEAR     50  30  46 W6        30.07R

$$

MDZ501>502-200100-
WESTERN MARYLAND

CITY           SKY/WX    TMP DP  RH WIND       PRES   REMARKS
OAKLAND*       NOT AVBL
CUMBERLAND*    PTCLDY    52  32  46 CALM      30.13S

$$

VAZ025>031-200100-
SHENANDOAH VALLEY

CITY           SKY/WX    TMP DP  RH WIND       PRES   REMARKS
WINCHESTER*    CLEAR     45  32  61 NW5       30.08S
FRONT ROYAL*   FAIR      52  32  46 W3        30.08R
LURAY*         FAIR      50  36  57 CALM      30.09R
NEW MARKET*    FAIR      45  37  74 CALM      30.09R
STAUNTON*      MOCLDY    49  32  52 CALM      30.11R
WAYNESBORO*    FAIR      51  31  45 CALM      30.09R

$$

WVZ021-048>050-054>055-200100-
EASTERN WEST VIRGINIA PANHANDLE

CITY           SKY/WX    TMP DP  RH WIND       PRES   REMARKS
MARTINSBURG    CLEAR     45  32  60 CALM      30.09R
PETERSBURG*    MOCLDY   N/A N/A N/A CALM      30.11S

$$

VAZ036>039-050-200100-
CENTRAL FOOTHILLS

CITY           SKY/WX    TMP DP  RH WIND       PRES   REMARKS
CHARLOTTESVILL PTCLDY    54  29  38 CALM      30.08R
CULPEPER*      CLEAR     46  37  71 CALM      30.09R
ORANGE*        PTCLDY    46  39  76 CALM      30.10R
GORDONSVILLE*  FAIR      45  39  82 CALM      30.08R
WARRENTON*     FAIR      44  41  91 CALM      30.08R

$$

VAZ055>057-200100-
NORTH AND CENTRAL PIEDMONT

CITY           SKY/WX    TMP DP  RH WIND       PRES   REMARKS
FREDERICKSBRG* CLEAR     47  40  74 CALM      30.08R
STAFFORD*      CLEAR     43  38  85 CALM      30.12S

$$

NCZ024-NYZ072-PAZ021-071-VAZ022-071-200100-
OTHER REGIONAL OBSERVATIONS

CITY           SKY/WX    TMP DP  RH WIND       PRES   REMARKS
NEW YORK CITY  CLEAR     47  26  44 CALM      30.06R
PHILADELPHIA   CLEAR     52  26  36 NW5       30.07R
PITTSBURGH     CLOUDY    46  34  62 CALM      30.09S
ROANOKE        PTCLDY    50  37  61 NW7       30.13R
RICHMOND       MOCLDY    50  36  58 CALM      30.10R
RALEIGH        PTCLDY    50  44  80 CALM      30.11R

$$

ANZ530>537-200100-
MARINE OBSERVATIONS

STATION/POSITION TIME  TEMP    WIND        PRES
                       AIR SEA DIR/SP/G
                 (UTC) (F)     (DEG/KT/KT) (MB)
THOMAS PT LIGHT  0000   56 64  300/  9/  9 1019.3R
BALT KEY BRIDGE  0000   56     280/  8/  8 1017.7R
COVE POINT       0000   56     320/  5/  7 1018.1S
LEWISETTA        0000   56 63  300/  6/  8 1018.2R
SOLOMONS ISLAND  0000      66                N/A
PINEY POINT      0000           10/  5/  6   N/A

$$




USA.gov is the U.S. government's official web portal to all federal, state and local government web resources and services.